Simultaneous Nadir Overpasses (SNOs) Predictions

Prediction of SNOs near US between AQUA and NPP Satellite Orbit:

Table of predicted SNOs near US for the next 10.0 days since TLE Epoch: 10/23/2021
Index Date (AQUA) Time (AQUA) AQUA Lat,Lon Date (NPP) Time (NPP) NPP Lat,Lon Distance(km) Time Diff (sec)
1 10/23/2021 19:06:22 49.96, -92.53 10/23/2021 19:02:20 49.63, -94.57 151.67 242
2 10/23/2021 20:45:15 49.95,-117.24 10/23/2021 20:43:48 49.51,-119.90 197.01 87
3 10/26/2021 08:34:46 21.31,-101.57 10/26/2021 08:26:47 21.37,-101.88 33.28 479
4 10/26/2021 10:11:08 30.40,-124.03 10/26/2021 10:05:40 30.56,-124.85 80.07 328
5 10/29/2021 07:18:52 49.89, -75.98 10/29/2021 07:21:27 50.35, -78.33 175.37 155
6 10/29/2021 08:57:45 49.90,-100.70 10/29/2021 09:02:55 50.47,-103.66 219.81 310
7 10/31/2021 18:17:04 49.98, -80.20 10/31/2021 18:11:47 49.66, -81.94 129.49 317
8 10/31/2021 19:55:57 49.97,-104.92 10/31/2021 19:53:15 49.55,-107.26 174.77 162
